Location: Overspoor
(51.4747°N, 5.6641°E)
Time: 01:00:07
(UTC+02:00)

KKS-1 - Pass Details

Date: 01 July 2022
Orbit: 635 x 648 km, 98.2° (Epoch: 07 August)

Event Time Altitude Azimuth Distance (km) Brightness Sun altitude
Rises 23:42:45 0° 16° (NNE) 2,979 ? -11.0°
Reaches altitude 10° 23:44:59 10° 18° (NNE) 2,063 ? -11.2°
Maximum altitude 23:49:29 73° 103° (ESE) 681 ? -11.5°
Enters shadow 23:53:38 12° 188° (S) 1,923 ? -11.8°
